Location: Frankfurt am Main
(50.1109°N, 8.6821°E)
Time: 20:33:08
(UTC+02:00)

ISS - Visible Passes

Search period start: 26 May 2022 00:00
Search period end: 05 June 2022 00:00
Orbit: 414 x 421 km, 51.6° (Epoch: 26 May)

Date Brightness Start Highest point End Pass type
(mag) Time Alt. Az. Time Alt. Az. Time Alt. Az.
26 May -3.6 22:35:34 10° WNW 22:38:53 56° SSW 22:41:27 15° SE visible
27 May -1.4 00:13:23 10° WSW 00:14:21 13° WSW 00:14:21 13° WSW visible
27 May -2.1 23:24:40 10° W 23:27:11 20° SW 23:27:55 19° SSW visible
28 May -2.5 22:36:16 10° W 22:39:13 29° SSW 22:41:29 14° SSE visible
30 May -1.4 22:37:29 10° WSW 22:39:18 14° SW 22:41:07 10° S visible
